OBJECT AJ, 64560

Orbit data source: Space-Track

You're viewing an Uncataloged Satellite

Recently launched and/or uncataloged satellites may have evolving metadata. Metadata may include but not limited to: Owner, Maufacturer, Bus, Motor, and Mission.

OBJECT AJ, 64560 is a satellite in SSO that was launched on Mon, 23 Jun 2025 UTC via an FALCON 9 launch vehicle from the Air Force Western Test Range (AFWTR). Unknown objects in Earth's orbit typically refer to objects detected orbiting the Earth but have not yet been identified or cataloged. These objects could be anything from previously untracked satellites, spent rocket stages, debris from satellite collisions, or even natural meteoroids temporarily captured by Earth's gravity.

Loading next visibility...
Identifier
64560, 2025-135AJ
Orbit
SSO
Country
Flag of TBDTBD
Related business
None
Manufacturer
Unknown
Mission
Operational Commercial Communications
Bus & Motor
Unknown
Mass
Unknown
Launch date (UTC)
2025-06-23 (10 months ago)
Launch vehicle
FALCON 9
Launch site
Air Force Western Test Range (AFWTR)
Object type
Unknown
Shape & HBR
Box, 0.1 m
Radar Cross Section
0.080 m², Small (<0.1 m²)

Expand to show TLE details & history
Last TLE update: 16 hours ago

TLE from 16 hours ago
0 OBJECT AJ
1 64560U 25135AJ  26104.56980573  .00002179  00000-0  20413-3 0  9995
2 64560  97.7647 219.8149 0001741 108.3984 251.7426 14.95075229 44406
Epoch: 2026-04-14T13:40Z
TLE epoch observation values (Epoch: 2026-04-14T13:40:31.215Z)
Latitude
0.00001°
Longitude
171.94067°
Altitude
585.565 km
Speed
7.567 km/s
True Right ascension
14h 39m 15s
True Declination
0° 00' 00"
Sunlit
Object was in full shadow at epoch
Visualization orbit readout
Latitude
Unknown
Longitude
Unknown
Altitude
Unknown
Speed
Unknown
Apparent Right ascension
Unknown
Apparent Declination
Unknown
Sunlit
N/A
Visualization observer readout
Local Sidereal Time
12:16:57
Azimuth
Unknown
Elevation
Unknown
Doppler factor
Unknown
Orbital elements
Apogee altitude
580.365 km
Perigee altitude
577.943 km
Semi-major axis
6,957.291 km
Eccentricity
0.00017
Inclination
97.7647°
RAAN
219.8149°
Arg. of periapsis
108.3984°
True anomaly
251.72366°
Mean anomaly
251.7426°
Eccentric anomaly
251.73313°
Mean motion
3.7401 °/min
Orbital period
96.25 mins
BSTAR
0.00020413
Loading maneuver chart data...
Computing Atmospheric mass density...
Loading historical data...
Loading historical data...
Loading historical data...
Loading historical data...
Loading historical data...
Loading historical data...
Loading historical data...

Documentation

Showing up to 5 results
|